EW9766 Weather Reports


time (UTC)temp
C
wind
direction
speed
KPH
gust
KPH
rain 1hr
cm
rain 24hr
cm
rain mn
cm
humidity
%
barometer
mb
20260504044530 17 158 9.7 17.7 0.00 0.00 0.00 46 1012.0
20260504043105 17 153 9.7 19.3 0.00 0.00 0.00 46 1011.9
20260504041728 -17 0 0.0 0.0 0.00 0.00 0.00 100
20260504034531 17 184 9.7 19.3 0.00 0.00 0.00 47 1011.4
20260504033106 17 176 8.0 11.3 0.00 0.00 0.00 48 1011.3
20260504031645 18 176 6.4 9.7 0.00 0.00 0.00 46 1011.1
20260504030031 20 157 6.4 9.7 0.00 0.00 0.00 42 1011.0
20260504024531 22 173 4.8 8.0 0.00 0.00 0.00 37 1011.0
20260504023036 24 251 1.6 6.4 0.00 0.00 0.00 33 1011.0
20260504020036 25 295 3.2 8.0 0.00 0.00 0.00 30 1011.3
20260504014531 26 305 3.2 9.7 0.00 0.00 0.00 29 1011.3
20260504013035 26 295 3.2 9.7 0.00 0.00 0.00 28 1011.4
20260504011537 26 289 3.2 9.7 0.00 0.00 0.00 28 1011.6
20260504010030 26 236 1.6 9.7 0.00 0.00 0.00 28 1011.7
20260504004650 26 331 1.6 12.9 0.00 0.00 0.00 28 1011.8
20260504003037 26 13 8.0 14.5 0.00 0.00 0.00 28 1011.9
20260504001607 26 11 11.3 20.9 0.00 0.00 0.00 29 1012.0
20260504000032 26 5 4.8 17.7 0.00 0.00 0.00 29 1012.1
20260503233037 26 37 8.0 16.1 0.00 0.00 0.00 30 1012.4
20260503231531 26 62 8.0 12.9 0.00 0.00 0.00 30 1012.6
20260503230032 26 37 9.7 24.1 0.00 0.00 0.00 30 1012.8
20260503224535 26 36 9.7 22.5 0.00 0.00 0.00 30 1013.0
20260503221534 26 37 12.9 37.0 0.00 0.00 0.00 30 1013.4
20260503214535 26 35 11.3 27.4 0.00 0.00 0.00 30 1013.8
20260503211534 26 76 11.3 25.7 0.00 0.00 0.00 29 1014.1
20260503210105 26 68 11.3 32.2 0.00 0.00 0.00 30 1014.3
20260503204536 26 93 9.7 22.5 0.00 0.00 0.00 30 1014.5
20260503203032 26 88 8.0 22.5 0.00 0.00 0.00 31 1014.6
20260503201535 26 38 14.5 29.0 0.00 0.00 0.00 31 1014.7
20260503200149 26 69 9.7 27.4 0.00 0.00 0.00 31 1015.0
20260503194530 26 68 12.9 22.5 0.00 0.00 0.00 100 1015.1
20260503193032 25 49 9.7 24.1 0.00 0.00 0.00 100 1015.2
20260503191535 25 54 12.9 24.1 0.00 0.00 0.00 100 1015.3
20260503190030 25 38 11.3 25.7 0.00 0.00 0.00 100 1015.4
20260503184535 26 68 6.4 22.5 0.00 0.00 0.00 42 1015.5
20260503183034 25 343 4.8 12.9 0.00 0.00 0.00 35 1015.7
20260503181534 25 59 6.4 16.1 0.00 0.00 0.00 42 1015.7
20260503180036 24 312 8.0 16.1 0.00 0.00 0.00 43 1015.8
20260503174536 23 298 6.4 14.5 0.00 0.00 0.00 45 1015.9
20260503150143 18 315 0.0 4.8 0.00 0.00 0.00 53 1016.3
20260503130146 12 163 11.3 19.3 0.00 0.00 0.00 60 1016.1
20260503081531 13 173 9.7 17.7 0.00 0.00 0.00 60 1016.2
20260503071535 13 145 8.0 12.9 0.00 0.00 0.00 60 1016.3
20260503060106 13 202 1.6 4.8 0.00 0.00 0.00 61 1016.2
20260503054537 14 279 0.0 3.2 0.00 0.00 0.00 59 1016.1